Location: Burbank
(38.7788°N, 114.0429°W)
Time: 02:02:07
(UTC+00:00)

Vanguard 1 Rocket - Visible Passes

Search period start: 14 May 2026 00:00
Search period end: 24 May 2026 00:00
Orbit: 655 x 4212 km, 34.3° (Epoch: 13 May)

Date Brightness Start Highest point End Pass type
(mag) Time Alt. Az. Time Alt. Az. Time Alt. Az.
14 May 10.4 02:41:13 10° W 02:57:05 69° SSW 03:22:39 10° ESE visible
14 May 10.8 05:08:59 10° W 05:28:09 44° SW 05:40:29 30° S visible
14 May 11.4 07:45:28 10° W 07:57:23 16° SW 07:57:36 16° SW visible
15 May 10.6 03:54:53 10° W 04:12:32 55° SSW 04:31:40 21° SE visible
15 May 11.2 06:25:40 10° W 06:42:45 26° SW 06:48:47 24° SSW visible
16 May 10.4 02:41:40 10° W 02:56:59 64° SSW 03:21:57 10° SE visible
16 May 11.0 05:09:41 10° W 05:27:36 38° SW 05:40:02 26° S visible
16 May 11.6 07:52:43 10° WSW 07:56:44 11° SW 07:57:10 11° SW visible
17 May 10.7 03:55:25 10° W 04:12:12 48° SSW 04:31:19 19° SSE visible
17 May 11.3 06:27:32 10° W 06:42:07 21° SW 06:48:27 19° SSW visible
18 May 10.5 02:42:11 10° W 02:56:52 58° SSW 03:21:04 10° SE visible
18 May 11.1 05:10:40 10° W 05:27:07 31° SW 05:39:47 21° S visible
19 May 10.8 03:56:06 10° W 04:11:55 42° SSW 04:31:11 16° SSE visible
19 May 11.5 06:30:42 10° WSW 06:41:38 15° SW 06:48:20 13° SSW visible
20 May 10.5 02:42:45 10° W 02:56:47 52° SSW 03:19:56 10° SE visible
20 May 11.3 05:12:05 10° W 05:26:44 25° SW 05:39:46 16° S visible
21 May 11.0 03:56:59 10° W 04:11:41 35° SW 04:31:14 12° SSE visible
21 May 11.7 06:40:23 10° SW 06:41:20 10° SW 06:42:16 10° SW visible
22 May 10.6 02:43:27 10° W 02:56:45 45° SSW 03:18:31 10° SE visible
22 May 11.4 05:14:15 10° WSW 05:26:27 19° SW 05:39:55 11° S visible
23 May 11.1 03:58:11 10° W 04:11:32 28° SW 04:30:14 10° SSE visible
